This is the latest recevied weather packets stored in our database for station/object LA9UTA-13. If no packets are shown the sender has not sent any weather packets the latest 10 day(s).
| Time | Temp. | Humidity | Pressure | Rain* | Wind** | Luminosity | Snow |
|---|---|---|---|---|---|---|---|
| 1777922281 | 5° C | 81% | 1004.6 hPa | 0 mm | - | 4 W/m² | - |
| 1777921082 | 5.56° C | 80% | 1004.6 hPa | 0 mm | - | 16 W/m² | - |
| 1777919882 | 9.44° C | 57% | 1003.1 hPa | 0 mm | - | 10 W/m² | - |
| 1777918683 | 9.44° C | 54% | 1003.1 hPa | 0 mm | - | 40 W/m² | - |
| 1777917482 | 10.56° C | 50% | 1003 hPa | 0 mm | - | 41 W/m² | - |
| 1777916282 | 10.56° C | 48% | 1003 hPa | 0 mm | - | 46 W/m² | - |
| 1777915081 | 11.11° C | 47% | 1003 hPa | 0 mm | - | 81 W/m² | - |
| 1777913881 | 11.11° C | 46% | 1003 hPa | 0 mm | - | 82 W/m² | - |
| 1777912682 | 11.67° C | 42% | 1003 hPa | 0 mm | - | 46 W/m² | - |
| 1777911481 | 11.67° C | 44% | 1003 hPa | 0 mm | - | 110 W/m² | - |
| 1777910282 | 12.22° C | 39% | 1002.9 hPa | 0 mm | - | 100 W/m² | - |
| 1777909082 | 12.78° C | 39% | 1002.9 hPa | 0 mm | - | 180 W/m² | - |
| 1777907882 | 14.44° C | 35% | 1002.7 hPa | 0 mm | - | 376 W/m² | - |
| 1777906681 | 14.44° C | 34% | 1003.7 hPa | 0 mm | - | 371 W/m² | - |
| 1777905481 | 13.89° C | 34% | 1002.8 hPa | 0 mm | - | 461 W/m² | - |
| 1777904282 | 12.78° C | 36% | 1003.9 hPa | 0 mm | - | 207 W/m² | - |
| 1777903082 | 12.78° C | 35% | 1003.9 hPa | 0 mm | - | 152 W/m² | - |
| 1777901882 | 13.89° C | 32% | 1003.8 hPa | 0 mm | - | 341 W/m² | - |
| 1777900681 | 13.33° C | 33% | 1003.8 hPa | 0 mm | - | 176 W/m² | - |
| 1777899482 | 12.78° C | 32% | 1003.8 hPa | 0 mm | - | 107 W/m² | - |
| 1777898281 | 13.89° C | 30% | 1003.7 hPa | 0 mm | - | 74 W/m² | - |
| 1777897081 | 13.33° C | 30% | 1003.8 hPa | 0 mm | - | 541 W/m² | - |
| 1777895882 | 13.33° C | 30% | 1003.8 hPa | 0 mm | - | 554 W/m² | - |
| 1777894681 | 12.78° C | 31% | 1003.9 hPa | 0 mm | - | 560 W/m² | - |
| 1777893482 | 13.33° C | 33% | 1003.8 hPa | 0 mm | - | 560 W/m² | - |
* Rain latest hour (hover to see other rain measurements)
** Current wind speed in m/s (hover to see current wind gust speed)